FW9881 Weather Reports


time (UTC)temp
C
wind
direction
speed
KPH
gust
KPH
rain 1hr
cm
rain 24hr
cm
rain mn
cm
humidity
%
barometer
mb
20260509162316 6 202 0.0 0.0 0.20 0.48 0.48 90 1016.8
20260509160317 6 157 0.0 0.0 0.15 0.41 0.41 91 1017.1
20260509155318 6 247 0.0 0.0 0.15 0.38 0.38 91 1017.1
20260509154317 6 157 0.0 3.2 0.15 0.36 0.33 91 1017.3
20260509154218 6 149 0.0 1.6 0.13 0.33 0.33 91 1017.2
20260509153217 6 157 0.0 0.0 0.13 0.30 0.30 91 1017.4
20260509153118 6 154 3.2 8.0 0.13 0.30 0.30 90 1017.4
20260509153017 6 135 4.8 8.0 0.13 0.30 0.30 91 1017.5
20260509152017 6 157 0.0 3.2 0.10 0.28 0.28 91 1017.6
20260509151017 6 135 1.6 3.2 0.10 0.25 0.25 91 1017.5
20260509145118 5 202 0.0 0.0 0.13 0.23 0.23 90 1017.5
20260509142118 5 225 0.0 0.0 0.10 0.18 0.18 91 1017.3
20260509142017 5 225 0.0 0.0 0.10 0.18 0.15 91 1017.2
20260509141017 5 202 0.0 4.8 0.10 0.15 0.15 90 1017.5
20260509140017 5 225 1.6 3.2 0.08 0.13 0.13 90 1017.5
20260509135116 5 157 1.6 1.6 0.08 0.10 0.10 91 1017.3
20260509134135 5 157 0.0 0.0 0.08 0.10 0.10 90 1017.1
20260509133217 5 157 0.0 0.0 0.08 0.08 0.08 91 1017.1
20260509132116 5 157 0.0 0.0 0.08 0.08 0.08 91 1017.1
20260509131118 5 157 0.0 0.0 0.05 0.05 0.05 91 1017.2
20260509130117 5 157 0.0 0.0 0.05 0.05 0.05 90 1017.2
20260509125217 5 157 0.0 0.0 0.03 0.03 0.03 91 1017.3
20260509124218 4 157 0.0 0.0 0.03 0.03 0.03 91 1017.3
20260509123117 4 170 0.0 3.2 0.00 0.00 0.00 90 1017.5
20260509122117 4 180 0.0 0.0 0.00 0.00 0.00 89 1017.7
20260509121116 3 180 0.0 0.0 0.00 0.00 0.00 90 1017.7
20260509120132 3 180 0.0 0.0 0.00 0.00 0.00 90 1017.5
20260509115216 3 180 0.0 0.0 0.00 0.00 0.00 90 1017.6
20260509114218 2 180 0.0 0.0 0.00 0.00 0.00 90 1017.6
20260509114133 2 180 0.0 0.0 0.00 0.00 0.00 91 1017.5
20260509111219 1 157 0.0 0.0 0.00 0.00 0.00 91 1017.5
20260509111118 1 157 0.0 0.0 0.00 0.00 0.00 90 1017.4
20260509105117 1 157 0.0 0.0 0.00 0.00 0.00 92 1017.6
20260509105018 1 157 0.0 0.0 0.00 0.00 0.00 92 1017.6
20260509104033 1 157 0.0 0.0 0.00 0.00 0.00 91 1017.6
20260509103116 0 157 0.0 0.0 0.00 0.00 0.00 91 1017.6
20260509103016 0 157 0.0 0.0 0.00 0.00 0.00 91 1017.5
20260509101018 0 157 0.0 0.0 0.00 0.00 0.00 92 1017.5
20260509100916 0 157 0.0 0.0 0.00 0.00 0.00 92 1017.4
20260509095918 0 157 1.6 1.6 0.00 0.00 0.00 92 1017.3
20260509094917 0 157 0.0 0.0 0.00 0.00 0.00 91 1017.1
20260509093916 0 157 0.0 0.0 0.00 0.00 0.00 92 1017.1
20260509093818 0 157 0.0 0.0 0.00 0.00 0.00 91 1017.1
20260509092817 0 157 1.6 3.2 0.00 0.00 0.00 92 1017.1
20260509091916 0 157 0.0 0.0 0.00 0.00 0.00 92 1016.9
20260509090919 0 157 0.0 0.0 0.00 0.00 0.00 90 1016.8
20260509090015 0 157 0.0 0.0 0.00 0.00 0.00 90 1016.7
20260509085918 0 157 0.0 0.0 0.00 0.00 0.00 91 1016.9
20260509084938 0 157 0.0 0.0 0.00 0.00 0.00 91 1016.8
20260509082937 -1 157 1.6 3.2 0.00 0.00 0.00 91 1016.4
20260509081938 -1 157 0.0 0.0 0.00 0.00 0.00 91 1016.5
20260509081036 0 157 0.0 0.0 0.00 0.00 0.00 91 1016.4
20260509080039 0 157 0.0 1.6 0.00 0.00 0.00 90 1016.4
20260509075136 0 180 1.6 1.6 0.00 0.00 0.00 91 1016.3
20260509074137 0 180 0.0 0.0 0.00 0.00 0.00 90 1016.5
20260509073136 0 180 0.0 0.0 0.00 0.00 0.00 89 1016.5
20260509073037 0 180 0.0 0.0 0.00 0.00 0.00 89 1016.5
20260509072038 0 180 0.0 0.0 0.00 0.00 0.00 89 1016.6
20260509071936 0 180 0.0 0.0 0.00 0.00 0.00 89 1016.6
20260509065953 0 180 0.0 0.0 0.00 0.00 0.00 88 1016.3
20260509064936 0 180 0.0 0.0 0.00 0.00 0.00 88 1016.5
20260509062938 0 22 0.0 0.0 0.00 0.00 0.00 88 1016.6
20260509061938 1 22 0.0 1.6 0.00 0.00 0.00 87 1016.6
20260509061036 1 22 1.6 3.2 0.00 0.00 0.00 87 1016.7
20260509060937 1 337 0.0 3.2 0.00 0.00 0.00 87 1016.7
20260509055936 1 315 0.0 0.0 0.00 0.00 0.00 85 1016.8
20260509053135 1 315 0.0 0.0 0.00 0.00 0.00 84 1016.9
20260509052151 1 315 0.0 0.0 0.00 0.00 0.00 82 1016.7
20260509051235 2 315 0.0 0.0 0.00 0.00 0.00 82 1016.6
20260509050239 2 315 0.0 0.0 0.00 0.00 0.00 81 1016.7
20260509045335 2 315 0.0 0.0 0.00 0.00 0.00 80 1016.5
20260509045237 2 315 0.0 0.0 0.00 0.00 0.00 80 1016.5
20260509043235 2 315 0.0 0.0 0.00 0.00 0.00 79 1016.5
20260509042236 3 315 0.0 0.0 0.00 0.00 0.00 77 1016.4
20260509041335 3 315 0.0 0.0 0.00 0.00 0.00 77 1016.4
20260509040238 3 315 0.0 0.0 0.00 0.00 0.00 75 1016.3
20260509035246 3 225 0.0 0.0 0.00 0.00 0.00 74 1016.3
20260509032247 4 281 0.0 3.2 0.00 0.00 0.00 74 1016.3
20260509025347 4 112 0.0 0.0 0.00 0.00 0.00 72 1016.0
20260509024345 5 112 0.0 0.0 0.00 0.00 0.00 70 1015.8
20260509023345 5 112 0.0 0.0 0.00 0.00 0.00 70 1016.0
20260509023244 5 112 0.0 0.0 0.00 0.00 0.00 69 1016.0
20260509022246 5 112 1.6 1.6 0.00 0.00 0.00 68 1015.9
20260509021344 6 112 0.0 1.6 0.00 0.00 0.00 66 1015.8
20260509020345 6 112 0.0 1.6 0.00 0.00 0.00 64 1015.7
20260509015444 7 22 1.6 1.6 0.00 0.00 0.00 61 1015.5
20260509014445 7 270 0.0 1.6 0.00 0.00 0.00 59 1015.5
20260509014344 7 270 0.0 1.6 0.00 0.00 0.00 59 1015.4
20260509012345 7 263 3.2 6.4 0.00 0.00 0.00 59 1015.1
20260509011346 7 254 1.6 3.2 0.00 0.00 0.00 59 1015.0
20260509010347 7 242 3.2 8.0 0.00 0.00 0.00 58 1015.0
20260509005347 8 247 1.6 3.2 0.00 0.00 0.00 57 1014.6
20260509004444 8 247 1.6 3.2 0.00 0.00 0.00 56 1014.4
20260509004347 8 247 1.6 3.2 0.00 0.00 0.00 56 1014.5
20260509003347 8 247 1.6 3.2 0.00 0.00 0.00 56 1014.4
20260509002345 8 253 3.2 4.8 0.00 0.00 0.00 55 1014.3
20260509001346 8 311 1.6 3.2 0.00 0.00 0.00 55 1014.1
20260509000444 8 246 4.8 8.0 0.00 0.00 0.00 54 1014.0
20260509000348 8 244 4.8 6.4 0.00 0.00 0.00 55 1014.1
20260508235444 8 248 3.2 6.4 0.00 0.00 0.00 54 1014.1
20260508234447 8 274 8.0 14.5 0.00 0.00 0.00 54 1013.8
20260508233447 8 253 3.2 8.0 0.00 0.00 0.00 53 1013.7
20260508232446 8 293 8.0 14.5 0.00 0.00 0.00 51 1013.5
20260508230545 9 277 9.7 14.5 0.00 0.00 0.00 48 1013.4
20260508223746 10 261 6.4 12.9 0.00 0.00 0.00 49 1013.3
20260508221802 10 259 8.0 11.3 0.00 0.00 0.00 45 1013.4
20260508221646 10 264 9.7 14.5 0.00 0.00 0.00 44 1013.3
20260508220647 11 254 12.9 20.9 0.00 0.00 0.00 42 1013.1
20260508220547 11 249 8.0 19.3 0.00 0.00 0.00 41 1013.2
20260508215601 11 240 3.2 4.8 0.00 0.00 0.00 40 1012.9
20260508215446 11 236 6.4 11.3 0.00 0.00 0.00 39 1012.8
20260508214448 11 263 9.7 17.7 0.00 0.00 0.00 39 1012.6
20260508211546 11 302 3.2 6.4 0.00 0.00 0.00 41 1012.3
20260508210546 11 271 1.6 4.8 0.00 0.00 0.00 40 1012.3
20260508204645 11 271 4.8 9.7 0.00 0.00 0.00 40 1012.2
20260508203703 11 242 4.8 9.7 0.00 0.00 0.00 39 1012.1
20260508202647 12 190 4.8 8.0 0.00 0.00 0.00 39 1012.0
20260508201646 11 185 4.8 8.0 0.00 0.00 0.00 39 1012.0
20260508201547 11 264 4.8 8.0 0.00 0.00 0.00 40 1012.1
20260508200544 11 294 4.8 11.3 0.00 0.00 0.00 37 1012.1
20260508195546 11 241 11.3 24.1 0.00 0.00 0.00 37 1011.9
20260508194644 12 236 11.3 20.9 0.00 0.00 0.00 35 1011.9
20260508194547 12 249 11.3 24.1 0.00 0.00 0.00 36 1011.7
20260508193546 12 278 8.0 11.3 0.00 0.00 0.00 37 1011.6
20260508192645 12 191 3.2 4.8 0.00 0.00 0.00 37 1011.9
20260508191646 11 288 8.0 17.7 0.00 0.00 0.00 36 1011.9
20260508185747 11 245 9.7 12.9 0.00 0.00 0.00 37 1012.2
20260508184748 11 257 6.4 17.7 0.00 0.00 0.00 37 1012.1
20260508184645 11 255 12.9 24.1 0.00 0.00 0.00 37 1012.1
20260508183645 11 309 6.4 11.3 0.00 0.00 0.00 35 1012.2
20260508181645 11 294 6.4 11.3 0.00 0.00 0.00 36 1012.4
20260508180644 11 308 8.0 12.9 0.00 0.00 0.00 36 1012.2
20260508175744 11 262 8.0 14.5 0.00 0.00 0.00 36 1012.3
20260508174744 11 253 6.4 16.1 0.00 0.00 0.00 37 1012.4
20260508171745 11 334 4.8 11.3 0.00 0.00 0.00 36 1012.4
20260508165846 11 304 8.0 11.3 0.00 0.00 0.00 35 1012.2
20260508164844 11 306 4.8 12.9 0.00 0.00 0.00 34 1012.3
20260508164747 11 360 1.6 6.4 0.00 0.00 0.00 35 1012.3
20260508163745 10 221 11.3 19.3 0.00 0.00 0.00 34 1012.4